[keps] orb09044.2l.amsat

Ray Hoad r.hoad at att.net
Fri Feb 13 20:07:12 PST 2009


SB KEPS @ AMSAT  $ORB09044.N
2Line Orbital Elements 09044.AMSAT

HR AMSAT ORBITAL ELEMENTS FOR AMATEUR SATELLITES IN NASA FORMAT
FROM WA5QGD FORT WORTH,TX February 13, 2009
Send Subscribe/unsubscribe to KEPS at 
http://www.amsat.org/mailman/listinfo/keps
BID: ORB09044.N

DECODE 2-LINE ELSETS WITH THE FOLLOWING KEY:
1 AAAAAU 00  0  0 BBBBB.BBBBBBBB  .CCCCCCCC  00000-0  00000-0 0  DDDZ
2 AAAAA EEE.EEEE FFF.FFFF GGGGGGG HHH.HHHH III.IIII JJ.JJJJJJJJKKKKKZ
KEY: A-CATALOGNUM B-EPOCHTIME C-DECAY D-ELSETNUM E-INCLINATION F-RAAN
G-ECCENTRICITY H-ARGPERIGEE I-MNANOM J-MNMOTION K-ORBITNUM Z-CHECKSUM

TO ALL RADIO AMATEURS BT

AO-07
1 07530U 74089B   09043.98982839 -.00000027  00000-0  10000-3 0 04040
2 07530 101.4412 073.1700 0011949 151.3305 208.8427 12.53575274567156
AO-10
1 14129U 83058B   09043.93319956 -.00000253  00000-0  10000-3 0  6208
2 14129 026.0001 171.6735 5971314 197.7162 126.2516 02.05870549193063
UO-11
1 14781U 84021B   09043.92534367  .00000019  00000-0  97920-5 0 08868
2 14781 098.1262 087.1564 0009615 023.7596 336.4043 14.79693887339454
RS-15
1 23439U 94085A   09044.69850152 -.00000039  00000-0  10000-3 0  1809
2 23439 064.8151 104.5102 0145994 075.5694 286.1380 11.27553086582190
FO-29
1 24278U 96046B   09044.72381737 -.00000016  00000-0  23278-4 0  9706
2 24278 098.5724 295.2349 0350276 310.3602 046.7432 13.52942099617051
SO-33
1 25509U 98061B   09043.98828685  .00000061  00000-0 -61778-9 0 03894
2 25509 031.4350 034.7697 0354647 332.5216 025.7092 14.28239141538068
AO-40
1 26609U 00072B   09042.97811223 -.00000182  00000-0  10000-3 0 01921
2 26609 008.7069 033.2734 7948891 174.8156 207.8055 01.25583595038051
VO-52
1 28650U 05017B   09043.91613507 -.00000164  00000-0 -14164-4 0 01548
2 28650 097.7587 109.5170 0028307 076.4946 283.9396 14.81551311204247
PO-63
1 29712U 07001D   09044.67278100  .00000456  00000-0  66324-4 0  2350
2 29712 097.8451 103.9511 0013589 320.8314 039.1918 14.80440404113199
AO-16
1 20439U 90005D   09043.95483876 -.00000023  00000-0  68172-5 0 05359
2 20439 098.2626 018.1102 0010782 175.5713 184.5564 14.31815637995378
LO-19
1 20442U 90005G   09044.52130747  .00000004  00000-0  16479-4 0  4554
2 20442 098.2279 026.3796 0012030 171.1017 189.0387 14.32052656995618
AO-27
1 22825U 93061C   09043.95454500  .00000058  00000-0  39305-4 0 01771
2 22825 098.4214 001.3923 0007502 269.9641 090.0690 14.29258553802163
IO-26
1 22826U 93061D   09043.89657486 -.00000013  00000-0  11440-4 0 08963
2 22826 098.4137 002.1394 0008087 267.5444 092.4820 14.29509118802250
GO-32
1 25397U 98043D   09043.98170180 -.00000011  00000-0  13185-4 0 08231
2 25397 098.3387 072.9050 0000355 250.8340 109.2815 14.23154860550464
NO-44
1 26931U 01043C   09044.03050286 -.00000230  00000-0 -57392-4 0 00987
2 26931 067.0530 024.2005 0005593 262.4713 097.5753 14.29545967384838
SO-50
1 27607U 02058C   09042.18114610 -.00000143  00000-0  27025-6 0  8129
2 27607 064.5568 047.7883 0079425 232.8766 126.4990 14.71413497330138
CO-55
1 27844U 03031E   09043.61119498  .00000066  00000-0  50999-4 0 05115
2 27844 098.7160 054.5240 0010330 139.1988 220.9960 14.20622326291574
CO-57
1 27848U 03031J   09043.57145872  .00000027  00000-0  33090-4 0 04589
2 27848 098.7166 053.5494 0010024 143.5321 216.6540 14.20426385291533
AO-51
1 28375U 04025K   09044.68317347  .00000001  00000-0  12766-4 0  3162
2 28375 098.0564 061.4619 0084059 139.3613 221.3893 14.40632841243176
CO-56
1 28941U 06005C   09044.87583201  .00035397  30021-5  18496-3 0  8152
2 28941 098.1284 197.5955 0120557 234.2567 124.7322 15.71212238167803
CP3
1 31128U 07012M   09044.66490908 -.00000048  00000-0  00000 0 0  5554
2 31128 098.0051 103.4748 0102252 308.3190 050.8850 14.52017550 96970
CP4
1 31132U 07012Q   09043.89673927  .00000017  00000-0  14455-4 0 05488
2 31132 098.0102 106.1161 0084442 300.8221 058.4680 14.55182204096958
CO-65
1 32785U 08021C   09044.72639626 -.00000067  00000-0 -16465-5 0  2900
2 32785 097.9624 109.6259 0016036 074.2626 286.0348 14.81447124 43160
NOAA-10
1 16969U 86073A   09044.64445830 -.00000102  00000-0 -23638-4 0  5005
2 16969 098.7049 071.8923 0012155 193.9520 166.1308 14.27379566165886
NOAA-11
1 19531U 88089A   09044.66602232  .00000049  00000-0  47817-4 0  5110
2 19531 098.7858 136.5282 0012271 100.0262 260.2325 14.14888706 52056
NOAA-12
1 21263U 91032A   09044.78907549  .00000012  00000-0  24032-4 0    95
2 21263 098.7729 052.7863 0012883 140.7637 219.4478 14.25566493922811
MET-3/5
1 21655U 91056A   09044.01570748  .00000051  00000-0  10000-3 0 07098
2 21655 082.5536 294.2324 0014141 127.3500 232.8912 13.17018476841283
MET-2/21
1 22782U 93055A   09043.65429324  .00000023  00000-0  77313-5 0  3775
2 22782 082.5465 280.8051 0022108 339.7741 020.2547 13.83633837780385
OKEAN-4
1 23317U 94066A   09044.86899098  .00000029  00000-0  52758-6 0  8280
2 23317 082.5365 089.5734 0023752 053.3969 306.9436 14.82673635774090
NOAA-14
1 23455U 94089A   09044.45997161  .00000097  00000-0  74738-4 0  5117
2 23455 098.9201 122.5291 0009691 176.5364 183.5864 14.13758492728443
NOAA-15
1 25338U 98030A   09044.45272902 -.00000110  00000-0 -28885-4 0  8177
2 25338 098.5767 036.4271 0011511 061.5738 298.6624 14.24744865559154
RESURS
1 25394U 98043A   09044.01795931 -.00000042  00000-0 -56956-6 0 01479
2 25394 098.3545 082.5926 0000904 181.4075 178.7106 14.24179708550722
FENGYUN1
1 25730U 99025A   09044.06066972  .00000004  00000-0  27474-4 0 06927
2 25730 098.7446 017.9948 0021670 207.8670 152.1340 14.07920041502855
OKEAN-0
1 25860U 99039A   09044.85832493  .00000013  00000-0  92486-5 0  5994
2 25860 097.7736 031.0215 0000711 101.9490 258.1793 14.73558292514985
NOAA-16
1 26536U 00055A   09044.47319284  .00000311  00000-0  19374-3 0  2925
2 26536 099.1747 045.1583 0009709 268.7053 091.3023 14.12511937432835
NOAA-17
1 27453U 02032A   09044.48004176  .00000227  00000-0  11708-3 0  2988
2 27453 098.5019 107.7232 0012694 123.2014 237.0383 14.24041388345140
NOAA-18
1 28654U 05018A   09044.47085199  .00000283  00000-0  18146-3 0  7836
2 28654 098.8966 348.7473 0014408 356.2477 003.8593 14.11233457192506
HUBBLE
1 20580U 90037B   09044.73488638  .00000272  00000-0  81434-5 0  3268
2 20580 028.4682 187.6991 0003636 071.5824 288.5160 15.00454292831298
PO-34
1 25520U 98064B   09044.00849160  .00000399  00000-0  98536-5 0 01872
2 25520 028.4612 006.3819 0004908 031.0422 329.0459 15.17295521569773
ISS
1 25544U 98067A   09044.74794314  .00004057  00000-0  36571-4 0  2643
2 25544 051.6395 219.0537 0008769 023.1642 069.7754 15.70873159586537
CO-58
1 28895U 05043F   09043.92846322  .00000193  00000-0  49970-4 0 02311
2 28895 098.0779 297.9183 0018597 020.2794 339.9189 14.59741369175607
FALCON
1 30776U 07006E   09044.62745621  .00000293  00000-0  24292-4 0  5034
2 30776 035.4331 129.0252 0002003 313.3391 046.7158 15.03167042106493
MAST
1 31126U 07012K   09043.70798677  .00000055  00000-0  23361-4 0 05287
2 31126 098.0062 104.1141 0093922 306.7175 052.5409 14.53477113096956
CAPE1
1 31130U 07012P   09044.72597971  .00000044  00000-0  21204-4 0  5270
2 31130 098.0079 103.5473 0101789 308.1402 051.0649 14.52032956 96771
COMPASS
1 32787U 08021E   09043.42921830  .00000351  00000-0  51492-4 0 02833
2 32787 097.9601 108.2259 0017166 078.4500 281.8626 14.81547273042970
AAUSAT2
1 32788U 08021F   09043.88002785  .00000230  00000-0  36011-4 0  2794
2 32788 097.9592 108.7109 0016756 079.0987 281.2074 14.81665386 43045
DO-64
1 32789U 08021G   09043.76375243  .00000396  00000-0  57053-4 0 03012
2 32789 097.9631 108.6871 0016741 077.8322 282.4765 14.81613045043021
CO-66
1 32791U 08021J   09044.74150877  .00000208  00000-0  33360-4 0  2722
2 32791 097.9613 109.5564 0017177 072.7064 287.6026 14.81386976 43133
RS-30
1 32953U 08025A   09043.83321312  .00000010  00000-0  00000-0 0 02316
2 32953 082.5067 333.9452 0020215 088.4948 271.8443 12.42999826032941
/EX






More information about the Keps mailing list